Location: Trebic
(49.2170°N, 15.8830°E)
Time: 15:33:13
(UTC+02:00)

Transit 2A Rocket - Pass Details

Date: 25 July 2019
Orbit: 590 x 913 km, 66.7° (Epoch: 22 August)

Event Time Altitude Azimuth Distance (km) Brightness Sun altitude
Rises 08:01:53 0° 313° (NW) 3,339 7.9 24.3°
Reaches altitude 10° 08:06:14 10° 345° (NNW) 2,319 7.4 25.0°
Maximum altitude 08:08:07 12° 6° (N) 2,158 7.5 25.3°
Drops below altitude 10° 08:09:56 10° 27° (NNE) 2,239 7.9 25.6°
Sets 08:13:56 0° 60° (ENE) 3,071 9.0 26.3°
